Overview Statistics Trail Chart Weather Telemetry Raw packets
 

This is the latest recevied weather packets stored in our database for station/object W2SBL-1. If no packets are shown the sender has not sent any weather packets the latest 10 day(s).

<< 12 13 14 15 16 17 18 >>
Time Temp. Humidity Pressure Rain* Wind** Luminosity Snow
1788117182 32.22° C 50% 1018.9 hPa - - - -
1788116282 31.11° C 52% 1018.9 hPa - - - -
1788115398 31.11° C 52% 1019.1 hPa - - - -
1788114482 31.67° C 51% 1019.4 hPa - - - -
1788113582 32.78° C 50% 1019.4 hPa - - - -
1788112682 31.67° C 51% 1019.5 hPa - - - -
1788111782 31.11° C 52% 1019.7 hPa - - - -
1788110882 27.78° C 51% 1013.7 hPa - - - -
1788109982 31.67° C 52% 1020.1 hPa - - - -
1788109081 31.67° C 51% 1020.2 hPa - - - -
1788108181 33.89° C 47% 1020.2 hPa - - - -
1788107281 33.89° C 47% 1020.2 hPa - - - -
1788106381 34.44° C 46% 1020.3 hPa - - - -
1788105481 35.56° C 43% 1020.4 hPa - - - -
1788104581 34.44° C 44% 1020.6 hPa - - - -
1788103683 33.33° C 44% 1020.8 hPa - - - -
1788102781 30.56° C 46% 1020.8 hPa - - - -
1788101881 27.78° C 51% 1020.9 hPa - - - -
1788100981 27.22° C 51% 1021.1 hPa - - - -
1788100080 26.67° C 51% 1021.3 hPa - - - -
1788099180 26.67° C 51% 1021.5 hPa - - - -
1788098280 26.11° C 51% 1021.6 hPa - - - -
1788097380 25.56° C 51% 1021.6 hPa - - - -
1788096480 25.56° C 52% 1021.9 hPa - - - -
1788095580 25° C 51% 1021.8 hPa - - - -

* Rain since midnight (hover to see other rain measurements)
** Current wind speed in m/s (hover to see current wind gust speed)